Home   Weather   Sidon   Past weeks

Flag for Lebanon Past Weather in Sidon, Lebanon — Yesterday and Last 2 Weeks

Now
59 °F

Clear.


Feels Like: 59 °F
Forecast: 55 / 70 °F
Wind: 2 mph from North

Location: Beirut Airport

Current Time: Jan 17, 2017 at 11:52:54 pm

Latest Report: Jan 17, 2017 at 11:00 pm


Visibility: 5 mi

Pressure: 30.04 "Hg

Humidity: 51%

Dew Point: 41 °F

Location of SidonLocation

Past Weather in Sidon — Graph

°F

Sidon Temperature Yesterday

Maximum temperature yesterday: 61 °F (at 10:00 am)
Minimum temperature yesterday: 52 °F (at 1:00 am)
Average temperature yesterday: 56 °F

High & Low Weather Summary for the Past Weeks

 TemperatureHumidityPressure
High68 °F (Jan 17, 4:00 pm)94% (Jan 15, 1:00 am)30.33 "Hg (Jan 15, 1:00 am)
Low48 °F (Jan 9, 5:00 am)30% (Jan 17, 4:00 pm)29.86 "Hg (Jan 8, 2:00 pm)
Average57 °F60%30.12 "Hg
* Reported Jan 2 10:00 pm — Jan 17 10:00 pm, Sidon, Weather by CustomWeather, © 2017

Note: Actual official high and low records may vary slightly from our data, if they occured in-between our weather recording intervals... More about our weather records

Advertising

Sidon Weather History for the Previous 24 Hours

Scroll right to see more
 ConditionsComfort  
Time TempWeatherWind HumidityBarometerVisibility
10:00 pm
Tue, Jan 17
59 °FClear.2 mph51%30.04 "Hg5 mi
9:00 pm59 °FClear.6 mph55%30.04 "Hg5 mi
8:00 pm61 °FClear.6 mph52%30.04 "Hg5 mi
7:00 pm61 °FClear.6 mph48%30.04 "Hg5 mi
6:00 pm63 °FClear.5 mph45%30.04 "Hg5 mi
5:00 pm66 °FClear.5 mph32%30.04 "Hg5 mi
4:00 pm68 °FSunny.6 mph30%30.04 "Hg4 mi
3:00 pm66 °FSunny.7 mph49%30.07 "Hg5 mi
2:00 pm66 °FSunny.7 mph56%30.04 "Hg5 mi
1:00 pm66 °FSunny.5 mph52%30.07 "Hg5 mi
12:00 pm64 °FPassing clouds.6 mph60%30.07 "HgN/A
11:00 am63 °FPassing clouds.5 mph56%30.09 "HgN/A
10:00 am63 °FPassing clouds.2 mph45%30.12 "HgN/A
9:00 am59 °FPassing clouds.2 mph48%30.09 "HgN/A
8:00 am54 °FPassing clouds.3 mph58%30.12 "HgN/A
7:00 am52 °FSunny.6 mph62%30.12 "Hg5 mi
6:00 am54 °FClear.2 mph58%30.12 "Hg5 mi
5:00 am54 °FClear.2 mph63%30.12 "Hg10 mi
4:00 am54 °FClear.3 mph72%30.12 "Hg10 mi
3:00 am54 °FPassing clouds.5 mph67%30.12 "HgN/A
2:00 am54 °FClear.3 mph72%30.15 "Hg10 mi
1:00 am55 °FPassing clouds.6 mph67%30.12 "HgN/A
12:00 am55 °FClear.3 mph67%30.12 "Hg10 mi
11:00 pm
Mon, Jan 16
55 °FClear.5 mph67%30.15 "Hg10 mi
Weather by CustomWeather, © 2017

See weather overviewHow to use our weather pages